Point Lay, AK

4:50 PM AKDT on April 25, 2017 (GMT -0800)
Point Lay

Weather History for PPIZ - May, 2014

Change the Weather History Date:

Sunday, May 18, 2014

  Actual Average Record
Temperature  
Mean Temperature 23 °F -  
Max Temperature 25 °F 31 °F 51 °F (1999)
Min Temperature 21 °F 22 °F 3 °F (2000)
Degree Days  
Heating Degree Days 42    
Moisture  
Dew Point 19 °F    
Average Humidity 87    
Maximum Humidity 93    
Minimum Humidity 82    
Precipitation  
Precipitation 0.00 in - - ()
Sea Level Pressure  
Sea Level Pressure 30.26 in    
Wind  
Wind Speed 11 mph (West)    
Max Wind Speed 16 mph    
Max Gust Speed -    
Visibility 10 miles    
Events Snow    
Averages and records for this station are not official NWS values.
T = Trace of Precipitation, MM = Missing Value Source: NWS Daily Summary

Daily Weather History Graph

Daily Weather History Graph

Search for Another Location

Airport or City:

Trip Planner

Search our weather history database for the weather conditions in past years. The results will help you decide how hot, cold, wet, or windy it might be!

Date:

Astronomy

May. 18, 2014 Rise Set
Actual Time 3:20 AM AKDT 2:16 AM AKDT
Civil Twilight Sun does not set Sun does not set
Nautical Twilight Sun does not set Sun does not set
Astronomical Twilight Sun does not set Sun does not set
Moon 4:10 AM AKDT (5/18) 8:45 AM AKDT (5/18)
Length of Visible Light 24h 00m
Length of Day
22h 55m
Waning Gibbous, 79% of the Moon is Illuminated
May 18
Waning Gibbous
May 21
Last Quarter
May 28
New
Jun 5
First Quarter
Jun 12
Full

Hourly Weather History & Observations

Time (AKDT) Temp. Windchill Dew Point Humidity Pressure Visibility Wind Dir Wind Speed Gust Speed Precip Events Conditions
12:56 AM 23.0 °F 10.6 °F 20.1 °F 89% 30.14 in 10.0 mi WNW 13.8 mph - 0.00 in   Overcast
1:56 AM 23.0 °F 9.6 °F 20.1 °F 89% 30.16 in 10.0 mi WNW 16.1 mph - N/A   Overcast
2:56 AM 23.0 °F 11.1 °F 18.1 °F 82% 30.17 in 10.0 mi WNW 12.7 mph - N/A   Overcast
3:56 AM 22.1 °F 12.0 °F 18.1 °F 85% 30.18 in 10.0 mi WNW 9.2 mph - N/A   Overcast
4:56 AM 22.1 °F 10.0 °F 19.0 °F 88% 30.19 in 10.0 mi NW 12.7 mph - N/A   Overcast
5:56 AM 21.0 °F 10.6 °F 18.1 °F 89% 30.20 in 10.0 mi WNW 9.2 mph - N/A   Overcast
6:32 AM 21.2 °F 11.7 °F 17.6 °F 86% 30.19 in 10.0 mi NW 8.1 mph - N/A   Overcast
6:56 AM 21.0 °F 12.4 °F 19.0 °F 92% 30.21 in 10.0 mi WNW 6.9 mph - N/A   Overcast
7:56 AM 21.0 °F 10.6 °F 19.0 °F 92% 30.22 in 10.0 mi NW 9.2 mph - N/A   Overcast
8:56 AM 21.0 °F 10.6 °F 19.0 °F 92% 30.24 in 10.0 mi West 9.2 mph - N/A   Overcast
9:56 AM 21.0 °F 9.9 °F 17.1 °F 85% 30.25 in 10.0 mi WNW 10.4 mph - N/A   Overcast
10:56 AM 21.0 °F 13.4 °F 17.1 °F 85% 30.26 in 10.0 mi WNW 5.8 mph - N/A   Overcast
11:56 AM 22.1 °F 13.7 °F 18.1 °F 85% 30.27 in 10.0 mi West 6.9 mph - N/A   Overcast
12:56 PM 21.2 °F 10.9 °F 17.6 °F 86% 30.27 in 10.0 mi West 9.2 mph - N/A Snow Light Snow
1:56 PM 23.0 °F 11.7 °F 19.0 °F 85% 30.29 in 9.0 mi West 11.5 mph - 0.00 in   Overcast
2:47 PM 21.2 °F 10.9 °F 19.4 °F 93% 30.28 in 10.0 mi West 9.2 mph - N/A   Overcast
2:56 PM 22.1 °F 12.0 °F 18.1 °F 85% 30.29 in 9.0 mi West 9.2 mph - N/A   Overcast
3:56 PM 23.0 °F 12.4 °F 19.0 °F 85% 30.30 in 10.0 mi West 10.4 mph - N/A   Overcast
4:56 PM 23.0 °F 13.9 °F 19.0 °F 85% 30.30 in 10.0 mi WSW 8.1 mph - N/A   Overcast
5:56 PM 23.0 °F 13.9 °F 20.1 °F 89% 30.30 in 10.0 mi WSW 8.1 mph - N/A   Overcast
6:16 PM 23.0 °F 13.9 °F 19.4 °F 86% 30.30 in 10.0 mi WSW 8.1 mph - N/A   Overcast
6:56 PM 23.0 °F 13.9 °F 20.1 °F 89% 30.32 in 10.0 mi WSW 8.1 mph - N/A   Overcast
7:56 PM 24.1 °F 15.2 °F 20.1 °F 85% 30.32 in 10.0 mi WSW 8.1 mph - N/A   Overcast
8:56 PM 25.2 °F 15.7 °F 21.0 °F 84% 30.32 in 10.0 mi WSW 9.2 mph - N/A   Overcast
9:04 PM 24.8 °F 15.3 °F 21.2 °F 86% 30.30 in 10.0 mi SW 9.2 mph - N/A   Overcast
9:56 PM 24.1 °F 17.0 °F 21.0 °F 88% 30.31 in 10.0 mi SW 5.8 mph - N/A   Overcast
10:56 PM 24.1 °F 15.2 °F 22.1 °F 92% 30.31 in 10.0 mi SSW 8.1 mph - N/A   Overcast
11:56 PM 25.2 °F 15.7 °F 22.1 °F 88% 30.30 in 10.0 mi SSW 9.2 mph - N/A   Mostly Cloudy